Le nostre stazioni meteo in Italia

Pubblicità
Il mio iltempo24.it
Alghero, Italia (16520): Temperatura & dewpoint: 09.10.2019 12:00:00 - 15.10.2019 12:00:00 (CEST)Alghero, Italia (16520): velocità del vento: 09.10.2019 12:00:00 - 15.10.2019 12:00:00 (CEST)Alghero, Italia (16520): direzione del vento: 09.10.2019 12:00:00 - 15.10.2019 12:00:00 (CEST)Alghero, Italia (16520): reduced air pressure: 09.10.2019 12:00:00 - 15.10.2019 12:00:00 (CEST)Alghero, Italia (16520): visibility: 09.10.2019 12:00:00 - 15.10.2019 12:00:00 (CEST)Alghero, Italia (16520): precipitazioni: 09.10.2019 12:00:00 - 15.10.2019 12:00:00 (CEST)
Data & Tempo tt [°C] td [°C] ff [km/h] ff [kn] dd ppp [hPa] vv [km] rr [mm]
15.10.2019 12:00:00 23,0 20,0 29 16 SO - 10 -
15.10.2019 11:00:00 23,9 19,7 34 18 SO 1014,4 10 0,0
15.10.2019 10:00:00 23,0 20,0 24 13 OSO - 10 -
15.10.2019 09:00:00 23,0 19,0 21 11 SO - 10 -
15.10.2019 08:00:00 22,7 18,3 24 13 SSO 1012,8 10 -
15.10.2019 07:00:00 16,0 14,0 8 4 SE - 10 -
15.10.2019 06:00:00 16,0 15,0 2 1 - - 10 -
15.10.2019 05:00:00 15,7 14,2 4 2 - 1014,6 10 0,0
15.10.2019 04:00:00 17,0 15,0 8 4 NNE - 10 -
15.10.2019 03:00:00 17,0 16,0 8 4 N - 10 -
15.10.2019 02:00:00 16,4 15,1 4 2 NE 1014,8 10 -
15.10.2019 01:00:00 17,0 16,0 4 2 - - 10 -
15.10.2019 00:00:00 19,0 18,0 8 4 E - 10 -
14.10.2019 23:00:00 20,8 19,1 2 1 - 1016,0 10 0,0
14.10.2019 22:00:00 22,0 19,0 5 3 SSO - 10 -
14.10.2019 21:00:00 24,0 19,0 9 5 O - 10 -
14.10.2019 20:00:00 24,8 18,4 5 3 ONO 1015,7 10 -
14.10.2019 19:00:00 26,0 18,0 5 3 ONO - 10 -
14.10.2019 18:00:00 28,0 18,0 15 8 OSO - 10 -
14.10.2019 17:00:00 28,9 15,5 8 4 NO 1015,3 10 0,0
14.10.2019 16:00:00 29,0 15,0 11 6 NO - 10 -
14.10.2019 15:00:00 29,0 16,0 13 7 NNO - 10 -
14.10.2019 14:00:00 29,9 15,6 9 5 - 1016,8 10 -
14.10.2019 13:00:00 30,0 14,0 4 2 - - 10 -
14.10.2019 12:00:00 28,0 15,0 4 2 - - 10 -
14.10.2019 11:00:00 26,4 15,0 5 3 ESE 1018,4 10 0,0
14.10.2019 10:00:00 21,0 17,0 5 3 ENE - 10 -
14.10.2019 09:00:00 18,0 16,0 5 3 NE - 10 -
14.10.2019 08:00:00 16,8 15,0 8 4 NNE 1018,1 10 -
14.10.2019 07:00:00 17,0 16,0 9 5 NE - 10 -
14.10.2019 06:00:00 17,0 16,0 9 5 NE - 10 -
14.10.2019 05:00:00 15,8 14,2 4 2 - 1018,4 10 0,0
14.10.2019 04:00:00 17,0 16,0 8 4 NE - 10 -
14.10.2019 03:00:00 17,0 16,0 5 3 NE - 10 -
14.10.2019 02:00:00 16,8 15,5 4 2 - 1019,2 10 -
14.10.2019 01:00:00 16,0 15,0 4 2 - - 10 -
14.10.2019 00:00:00 17,0 17,0 2 1 - - 10 -
13.10.2019 23:00:00 18,1 17,8 4 2 - 1019,6 10 0,0
13.10.2019 22:00:00 20,0 19,0 5 3 E - 10 -
13.10.2019 21:00:00 21,0 20,0 4 2 - - 10 -
13.10.2019 20:00:00 21,8 19,5 5 3 NE 1019,0 10 -
13.10.2019 19:00:00 24,0 19,0 11 6 ENE - 10 -
13.10.2019 18:00:00 25,0 17,0 15 8 ENE - 10 -
13.10.2019 17:00:00 25,9 16,0 16 9 E 1018,9 10 0,0
13.10.2019 16:00:00 27,0 15,0 13 7 ENE - 10 -
13.10.2019 15:00:00 27,0 15,0 8 4 NE - 10 -
13.10.2019 14:00:00 26,5 14,4 4 2 - 1019,8 10 -
13.10.2019 13:00:00 25,0 15,0 4 2 - - 10 -
13.10.2019 12:00:00 24,0 15,0 5 3 NE - 10 -
13.10.2019 11:00:00 22,6 15,2 9 5 NE 1020,6 10 0,0
13.10.2019 10:00:00 19,0 16,0 5 3 NE - 10 -
13.10.2019 09:00:00 17,0 15,0 4 2 NE - 10 -
13.10.2019 08:00:00 15,5 14,4 5 3 NE 1020,4 10 -
13.10.2019 07:00:00 15,0 14,0 9 5 NE - 10 -
13.10.2019 06:00:00 14,0 14,0 8 4 NE - 10 -
13.10.2019 05:00:00 12,9 12,3 4 2 - 1020,6 10 0,0
13.10.2019 04:00:00 13,0 12,0 5 3 ENE - 10 -
13.10.2019 03:00:00 14,0 13,0 5 3 E - 10 -
13.10.2019 02:00:00 14,8 13,4 8 4 ENE 1021,3 10 -
13.10.2019 01:00:00 14,0 13,0 2 1 - - 10 -
13.10.2019 00:00:00 15,0 13,0 2 1 - - 10 -
12.10.2019 23:00:00 15,8 14,2 2 1 - 1021,6 10 0,0
12.10.2019 22:00:00 17,0 15,0 4 2 ENE - 10 -
12.10.2019 21:00:00 18,0 15,0 8 4 ENE - 10 -
12.10.2019 20:00:00 19,6 15,8 9 5 ENE 1022,0 10 -
12.10.2019 19:00:00 22,0 17,0 15 8 ENE - 10 -
12.10.2019 18:00:00 23,0 17,0 9 5 N - 10 -
12.10.2019 17:00:00 23,1 16,2 11 6 NNO 1021,2 10 0,0
12.10.2019 16:00:00 24,0 16,0 11 6 NNO - 10 -
12.10.2019 15:00:00 25,0 15,0 13 7 ONO - 10 -
12.10.2019 14:00:00 24,6 14,4 15 8 OSO 1022,3 10 -
12.10.2019 13:00:00 24,0 16,0 21 11 OSO - 10 -
12.10.2019 12:00:00 23,0 16,0 15 8 SO - 10 -
12.10.2019 11:00:00 22,1 14,4 4 2 - 1023,1 10 0,0
12.10.2019 10:00:00 17,0 13,0 5 3 E - 10 -
12.10.2019 09:00:00 13,0 12,0 5 3 ENE - 10 -
12.10.2019 08:00:00 9,1 8,6 8 4 ENE 1021,9 10 -
12.10.2019 07:00:00 9,0 8,0 5 3 NE - 10 -
12.10.2019 06:00:00 10,0 9,0 4 2 E - 10 -
12.10.2019 05:00:00 9,3 8,8 4 2 NE 1022,2 10 0,0
12.10.2019 04:00:00 10,0 10,0 5 3 NNE - 10 -
12.10.2019 03:00:00 10,0 10,0 5 3 NE - 10 -
12.10.2019 02:00:00 10,5 9,8 4 2 N 1023,0 10 -
12.10.2019 01:00:00 11,0 10,0 4 2 ESE - 10 -
12.10.2019 00:00:00 12,0 11,0 4 2 - - 10 -
11.10.2019 23:00:00 12,9 10,9 0 0 N 1023,3 10 0,0
11.10.2019 22:00:00 15,0 12,0 4 2 ESE - 10 -
11.10.2019 21:00:00 17,0 13,0 5 3 NNE - 10 -
11.10.2019 20:00:00 18,2 13,6 5 3 N 1022,1 10 -
11.10.2019 19:00:00 20,0 14,0 8 4 NNO - 10 -
11.10.2019 18:00:00 22,0 13,0 11 6 NO - 10 -
11.10.2019 17:00:00 22,8 13,0 13 7 NO 1022,0 10 0,0
11.10.2019 16:00:00 23,0 12,0 13 7 NO - 10 -
11.10.2019 15:00:00 24,0 11,0 15 8 NNO - 10 -
11.10.2019 14:00:00 23,2 12,6 15 8 NO 1023,1 10 -
11.10.2019 13:00:00 24,0 12,0 15 8 ONO - 10 -
11.10.2019 12:00:00 23,0 13,0 13 7 NO - 10 -
11.10.2019 11:00:00 21,8 15,5 11 6 SO 1023,4 10 0,0
11.10.2019 10:00:00 20,0 14,0 4 2 - - 10 -
11.10.2019 09:00:00 15,0 13,0 4 2 - - 10 -
11.10.2019 08:00:00 10,5 9,9 2 1 - 1021,9 10 -
11.10.2019 07:00:00 11,0 11,0 4 2 - - 10 -
11.10.2019 06:00:00 - - - - - - - -
11.10.2019 05:00:00 11,6 10,5 2 1 - 1021,5 10 0,0
11.10.2019 04:00:00 13,0 11,0 2 1 - - 10 -
11.10.2019 03:00:00 14,0 12,0 4 2 - - 10 -
11.10.2019 02:00:00 12,4 10,8 2 1 - 1021,7 10 -
11.10.2019 01:00:00 13,0 11,0 2 1 - - 10 -
11.10.2019 00:00:00 14,0 11,0 4 2 - - 10 -
10.10.2019 23:00:00 14,5 11,7 2 1 - 1021,5 10 0,0
10.10.2019 22:00:00 15,0 12,0 2 1 - - 10 -
10.10.2019 21:00:00 16,0 12,0 2 1 - - 10 -
10.10.2019 20:00:00 17,1 12,5 2 1 - 1019,9 10 -
10.10.2019 19:00:00 20,0 13,0 8 4 N - 10 -
10.10.2019 18:00:00 21,0 13,0 13 7 NNO - 10 -
10.10.2019 17:00:00 21,7 13,2 21 11 NO 1019,3 10 0,0
10.10.2019 16:00:00 23,0 14,0 16 9 NNO - 10 -
10.10.2019 15:00:00 23,0 12,0 21 11 NO - 10 -
10.10.2019 14:00:00 24,0 12,7 16 9 NO 1019,9 10 -
10.10.2019 13:00:00 24,0 13,0 15 8 N - 10 -
10.10.2019 12:00:00 23,0 13,0 13 7 NNE - 10 -
10.10.2019 11:00:00 22,7 13,4 11 6 N 1020,7 10 0,0
10.10.2019 10:00:00 20,0 16,0 4 2 - - 10 -
10.10.2019 09:00:00 15,0 15,0 4 2 E - 10 -
10.10.2019 08:00:00 13,4 13,3 2 1 - 1018,8 1,5 -
10.10.2019 07:00:00 15,0 14,0 4 2 - - 10 -
10.10.2019 06:00:00 15,0 15,0 2 1 - - 10 -
10.10.2019 05:00:00 15,8 15,3 4 2 - 1018,7 10 0,0
10.10.2019 04:00:00 16,0 16,0 5 3 ENE - 10 -
10.10.2019 03:00:00 17,0 16,0 2 1 - - 10 -
10.10.2019 02:00:00 16,4 15,5 4 2 SSE 1018,9 10 -
10.10.2019 01:00:00 16,0 15,0 4 2 - - 10 -
10.10.2019 00:00:00 17,0 15,0 5 3 SSO - 10 -
09.10.2019 23:00:00 17,2 15,9 2 1 - 1019,0 10 0,0
09.10.2019 22:00:00 18,0 16,0 8 4 SSE - 10 -
09.10.2019 21:00:00 19,0 17,0 2 1 - - 10 -
09.10.2019 20:00:00 19,4 16,7 5 3 N 1018,4 10 -
09.10.2019 19:00:00 21,0 17,0 8 4 NNO - 10 -
09.10.2019 18:00:00 23,0 16,0 13 7 NO - 10 -
09.10.2019 17:00:00 24,0 16,0 11 6 NNO - 10 -
09.10.2019 16:00:00 24,0 16,0 11 6 NNO - 10 -
09.10.2019 15:00:00 24,0 16,0 13 7 NNO - 10 -
09.10.2019 14:00:00 23,4 16,4 8 4 OSO 1018,6 10 -
09.10.2019 13:00:00 23,0 17,0 18 10 SO - 10 -
09.10.2019 12:00:00 23,0 17,0 11 6 SSO - 10 -

tt = Temperatura
td = dewpoint
ff = velocità del vento
dd = direzione del vento
ppp = reduced air pressure
vv = visibility
rr = precipitazioni

Stazioni seguenti

WeatherPro
AMSI
MeteoEarth